This is the latest recevied weather packets stored in our database for station/object iz1wiy-3. If no packets are shown the sender has not sent any weather packets the latest 1 day(s).
| Time | Temp. | Humidity | Pressure | Rain* | Wind** | Luminosity | Snow |
|---|---|---|---|---|---|---|---|
| 1778035623 | 16.67° C | 88% | 1009.7 hPa | 1.52 mm | 0.89 m/s, 208° | - | - |
| 1778035563 | 16.67° C | 88% | 1009.6 hPa | 1.78 mm | 0.89 m/s, 208° | - | - |
| 1778035503 | 16.67° C | 88% | 1009.5 hPa | 1.78 mm | 0.89 m/s, 209° | - | - |
| 1778035443 | 16.67° C | 88% | 1009.6 hPa | 1.78 mm | 0.45 m/s, 206° | - | - |
| 1778035383 | 16.11° C | 88% | 1009.4 hPa | 1.78 mm | 0.45 m/s, 205° | - | - |
| 1778035323 | 16.11° C | 88% | 1009.6 hPa | 1.78 mm | 0.45 m/s, 202° | - | - |
| 1778035263 | 16.11° C | 88% | 1009.5 hPa | 1.78 mm | 0.45 m/s, 198° | - | - |
| 1778035203 | 16.11° C | 88% | 1009.6 hPa | 2.03 mm | 0.45 m/s, 201° | - | - |
| 1778035143 | 16.11° C | 88% | 1009.5 hPa | 2.03 mm | 0.45 m/s, 205° | - | - |
| 1778035084 | 16.11° C | 88% | 1009.5 hPa | 2.29 mm | 0.45 m/s, 208° | - | - |
| 1778035023 | 16.11° C | 88% | 1009.4 hPa | 2.54 mm | 0.45 m/s, 217° | - | - |
| 1778034963 | 16.11° C | 88% | 1009.4 hPa | 2.79 mm | 0.45 m/s, 229° | - | - |
| 1778034903 | 16.11° C | 89% | 1009.5 hPa | 3.05 mm | 0.45 m/s, 228° | - | - |
| 1778034843 | 16.11° C | 89% | 1009.4 hPa | 3.05 mm | 0.45 m/s, 226° | - | - |
| 1778034783 | 16.11° C | 88% | 1009.4 hPa | 3.05 mm | 0.45 m/s, 236° | - | - |
| 1778034723 | 16.11° C | 88% | 1009.4 hPa | 3.05 mm | 0.45 m/s, 238° | - | - |
| 1778034663 | 16.11° C | 88% | 1009.3 hPa | 3.05 mm | 0.45 m/s, 238° | - | - |
| 1778034603 | 15.56° C | 88% | 1009.3 hPa | 3.05 mm | 0.89 m/s, 244° | - | - |
| 1778034543 | 15.56° C | 89% | 1009.3 hPa | 3.05 mm | 0.89 m/s, 275° | - | - |
| 1778034483 | 15.56° C | 89% | 1009.2 hPa | 3.05 mm | 0.89 m/s, 310° | - | - |
| 1778034423 | 15.56° C | 89% | 1009.4 hPa | 3.05 mm | 0.89 m/s, 323° | - | - |
| 1778034364 | 15.56° C | 89% | 1009.4 hPa | 3.3 mm | 0.89 m/s, 316° | - | - |
| 1778034303 | 15.56° C | 89% | 1009.5 hPa | 3.56 mm | 0.89 m/s, 330° | - | - |
| 1778034244 | 15.56° C | 89% | 1009.5 hPa | 4.06 mm | 0.89 m/s, 335° | - | - |
| 1778034183 | 15.56° C | 89% | 1009.6 hPa | 4.32 mm | 0.89 m/s, 336° | - | - |
* Rain latest hour (hover to see other rain measurements)
** Current wind speed in m/s (hover to see current wind gust speed)